Location: Fredericksburg
(30.2750°N, 98.8720°W)
Time: 14:05:58
(UTC-05:00)

PCSat - Visible Passes

Search period start: 25 September 2016 00:00
Search period end: 05 October 2016 00:00
Orbit: 786 x 794 km, 67.1° (Epoch: 25 September)

Date Brightness Start Highest point End Pass type
(mag) Time Alt. Az. Time Alt. Az. Time Alt. Az.
25 Sep 12.0 04:33:38 15° ESE 04:34:58 16° ESE 04:38:09 10° ENE visible
25 Sep 9.8 06:14:26 21° SW 06:17:52 49° WNW 06:23:08 10° NNE visible
26 Sep 12.4 04:04:45 10° E 04:04:45 10° E 04:04:57 10° E visible
26 Sep 9.4 05:45:32 48° SW 05:47:00 72° WNW 05:52:26 10° NNE visible
27 Sep 9.6 05:16:28 76° ENE 05:16:28 76° ENE 05:21:36 10° NNE visible
27 Sep 11.4 06:58:12 10° WNW 07:00:08 12° NW 07:02:05 10° NNW visible
28 Sep 10.9 04:47:16 36° NE 04:47:16 36° NE 04:50:40 10° NE visible
28 Sep 11.1 06:28:02 16° WNW 06:29:04 17° NW 06:32:31 10° NNW visible
29 Sep 11.9 04:17:57 19° NE 04:17:57 19° NE 04:19:34 10° NE visible
29 Sep 10.9 05:58:42 23° NW 05:58:42 23° NW 06:02:21 10° N visible
30 Sep 11.0 05:29:16 24° NNW 05:29:16 24° NNW 05:31:57 10° N visible
01 Oct 11.5 04:59:45 19° N 04:59:45 19° N 05:01:23 10° NNE visible
02 Oct 12.2 04:30:11 13° NNE 04:30:11 13° NNE 04:30:42 10° NNE visible
